Location: Munkebjergskolens Observatorium
(55.3864°N, 10.3987°E)
Time: 03:11:41
(UTC+02:00)

Oscar 19 - Pass Details

Date: 06 April 2023
Orbit: 773 x 789 km, 98.8° (Epoch: 07 June)

Event Time Altitude Azimuth Distance (km) Brightness Sun altitude
Rises 05:28:12 0° 18° (NNE) 3,277 14.6 -10.1°
Reaches altitude 10° 05:30:34 10° 21° (NNE) 2,347 13.9 -9.8°
Maximum altitude 05:35:42 64° 103° (ESE) 872 11.2 -9.2°
Drops below altitude 10° 05:40:50 10° 185° (S) 2,341 12.8 -8.5°
Sets 05:43:10 0° 189° (S) 3,267 13.5 -8.2°
